N5CSU Weather Reports


time (UTC)temp
F
wind
direction
speed
knots
gust
knots
rain 1hr
in
rain 24hr
in
rain mn
in
humidity
%
barometer
mb
20260506113616 57 189 0.0 0.0 0.00 0.00 0.00 79 1012.3
20260506113113 57 197 0.0 0.0 0.00 0.00 0.00 79 1012.0
20260506112610 58 193 0.0 0.0 0.00 0.00 0.00 78 1012.2
20260506112107 58 192 0.0 0.0 0.00 0.00 0.00 79 1012.1
20260506111605 58 200 0.0 0.0 0.00 0.00 0.00 78 1012.1
20260506111102 58 188 0.0 0.0 0.00 0.00 0.00 78 1012.0
20260506110600 58 189 0.0 0.0 0.00 0.00 0.00 79 1011.8
20260506110057 58 189 0.0 0.0 0.00 0.00 0.00 81 1011.7
20260506105553 58 189 0.0 0.0 0.00 0.00 0.00 78 1011.7
20260506105050 58 188 0.0 0.0 0.00 0.00 0.00 80 1011.7
20260506104548 59 190 0.0 0.0 0.00 0.00 0.00 80 1011.4
20260506104046 59 177 0.0 0.0 0.00 0.00 0.00 79 1011.3
20260506103543 59 189 0.0 0.9 0.00 0.00 0.00 79 1011.2
20260506103039 59 184 0.0 0.0 0.00 0.00 0.00 81 1011.3
20260506102538 59 184 0.0 0.9 0.00 0.00 0.00 79 1011.1
20260506102035 59 172 0.0 0.0 0.00 0.00 0.00 78 1010.9
20260506101531 59 179 0.0 0.0 0.00 0.00 0.00 80 1010.9
20260506101028 59 177 0.0 0.0 0.00 0.00 0.00 79 1010.9
20260506100527 59 193 0.0 0.0 0.00 0.00 0.00 78 1010.5
20260506100025 59 173 0.0 0.0 0.00 0.00 0.00 79 1010.7
20260506095523 60 182 0.0 0.0 0.00 0.00 0.00 80 1010.8
20260506095019 60 183 0.0 0.0 0.00 0.00 0.00 81 1010.7
20260506094517 60 185 0.0 0.0 0.00 0.00 0.00 77 1010.4
20260506094015 60 185 0.0 0.0 0.00 0.00 0.00 76 1010.7
20260506093513 60 185 0.0 0.0 0.00 0.00 0.00 77 1010.8
20260506093010 61 182 0.0 0.0 0.00 0.00 0.00 75 1010.7
20260506092508 61 183 0.0 0.0 0.00 0.00 0.00 75 1010.5
20260506092004 61 181 0.0 0.0 0.00 0.00 0.00 76 1010.6
20260506091503 61 182 0.0 0.9 0.00 0.00 0.00 76 1010.5
20260506090959 61 187 0.0 0.0 0.00 0.00 0.00 77 1010.7
20260506090458 61 184 0.0 0.0 0.00 0.00 0.00 77 1010.5
20260506085953 61 183 0.0 0.0 0.00 0.00 0.00 77 1010.6
20260506085450 61 190 0.0 0.0 0.00 0.00 0.00 76 1010.4
20260506084946 62 193 0.0 0.0 0.00 0.00 0.00 77 1010.4
20260506084443 62 188 0.0 0.0 0.00 0.00 0.00 77 1010.2
20260506083940 62 188 0.0 0.0 0.00 0.00 0.00 78 1010.0
20260506083437 62 188 0.0 0.0 0.00 0.00 0.00 77 1010.1
20260506082934 62 195 0.0 0.0 0.00 0.00 0.00 77 1009.9
20260506082431 62 188 0.0 0.0 0.00 0.00 0.00 77 1009.7
20260506081927 62 186 0.0 0.0 0.00 0.00 0.00 77 1009.6
20260506081425 62 194 0.0 0.0 0.00 0.00 0.00 77 1009.8
20260506080922 62 190 0.0 0.0 0.00 0.00 0.00 77 1009.7
20260506080419 62 195 0.0 0.0 0.00 0.00 0.00 77 1009.7
20260506073403 63 190 0.0 0.0 0.00 0.00 0.00 77 1010.0
20260506072900 63 182 0.0 0.0 0.00 0.00 0.00 77 1010.2
20260506072357 63 191 0.0 0.0 0.00 0.00 0.00 77 1010.1
20260506071855 63 201 0.0 0.0 0.00 0.00 0.00 77 1009.9
20260506071353 63 195 0.0 0.0 0.00 0.00 0.00 77 1010.0
20260506070849 63 180 0.0 0.0 0.00 0.00 0.00 77 1010.0
20260506070347 63 187 0.0 0.0 0.00 0.00 0.00 77 1009.9
20260506062324 64 190 0.0 0.0 0.00 0.00 0.00 78 1009.9
20260506061820 64 194 0.0 0.0 0.00 0.00 0.00 78 1009.9
20260506061317 64 196 0.0 0.0 0.00 0.00 0.00 77 1009.9
20260506060815 64 187 0.0 0.0 0.00 0.00 0.00 77 1010.0
20260506060313 64 145 0.0 0.0 0.00 0.00 0.00 77 1009.9
20260506051244 66 186 0.0 0.0 0.00 0.00 0.00 78 1009.6
20260506050742 67 182 0.0 0.0 0.00 0.00 0.00 78 1009.5
20260506050239 67 180 0.0 0.9 0.00 0.00 0.00 78 1009.5
20260506044730 68 118 0.0 0.0 0.00 0.00 0.00 78 1009.5
20260506044227 68 175 0.0 0.0 0.00 0.00 0.00 77 1009.5
20260506043725 68 170 0.0 0.9 0.00 0.00 0.00 79 1009.6
20260506043222 69 189 0.0 0.0 0.00 0.00 0.00 78 1009.4
20260506042721 69 184 0.0 0.9 0.00 0.00 0.00 79 1009.0
20260506042219 69 162 0.0 0.0 0.00 0.00 0.00 79 1009.1
20260506041717 69 191 0.0 0.0 0.00 0.00 0.00 80 1008.9
20260506041214 70 195 0.0 0.0 0.00 0.00 0.00 80 1008.8
20260506040711 70 179 0.0 0.0 0.00 0.00 0.00 80 1008.8
20260506040208 70 185 0.0 0.0 0.00 0.00 0.00 80 1008.5
20260506035704 70 191 0.0 0.0 0.00 0.00 0.00 81 1008.9
20260506035201 70 186 0.0 0.0 0.00 0.00 0.00 81 1008.5
20260506034658 70 186 0.0 0.0 0.00 0.00 0.00 80 1008.8
20260506034155 71 185 0.0 0.0 0.00 0.00 0.00 81 1008.5
20260506033653 71 185 0.0 0.0 0.00 0.00 0.00 81 1008.3
20260506033149 71 184 0.0 0.0 0.00 0.00 0.00 81 1008.3
20260506032646 71 193 0.0 0.0 0.00 0.00 0.00 81 1008.4
20260506032143 71 178 0.0 0.0 0.00 0.00 0.00 81 1008.2
20260506031640 71 183 0.0 0.0 0.00 0.00 0.00 80 1008.0
20260506031137 71 186 0.0 0.0 0.00 0.00 0.00 82 1008.1
20260506030636 70 189 0.0 0.0 0.00 0.00 0.00 83 1008.1
20260506030132 70 192 0.0 0.0 0.00 0.00 0.00 87 1007.9
20260506025629 70 189 0.0 0.0 0.00 0.00 0.00 87 1007.5
20260506025125 70 197 0.0 0.0 0.00 0.00 0.00 87 1007.6
20260506024623 70 195 0.0 0.0 0.00 0.00 0.00 88 1007.5
20260506024119 70 192 0.0 0.0 0.00 0.00 0.00 89 1007.5
20260506023615 71 185 0.0 0.0 0.00 0.00 0.00 90 1007.1
20260506023113 71 193 0.0 0.0 0.00 0.00 0.00 90 1007.0
20260506022610 71 193 0.0 0.0 0.00 0.00 0.00 90 1006.8
20260506022107 71 193 0.0 0.0 0.00 0.00 0.00 90 1006.4
20260506021605 71 192 0.0 0.0 0.00 0.00 0.00 89 1006.2
20260506021102 71 189 0.0 0.0 0.00 0.00 0.00 88 1006.4
20260506020559 71 192 0.0 0.0 0.00 0.00 0.00 89 1006.4
20260506020057 72 192 0.0 0.0 0.00 0.00 0.00 88 1006.3
20260506015554 72 192 0.0 0.0 0.00 0.00 0.00 89 1006.0
20260506015051 72 196 0.0 0.0 0.00 0.00 0.00 88 1006.3
20260506014548 72 202 0.0 0.0 0.00 0.00 0.00 88 1006.3
20260506014043 73 200 0.0 0.0 0.00 0.00 0.00 88 1006.0
20260506013542 73 195 0.0 0.0 0.00 0.00 0.00 88 1006.0
20260506013039 74 183 0.0 0.0 0.00 0.00 0.00 92 1005.7
20260506012535 75 190 0.0 0.0 0.00 0.00 0.00 94 1006.0
20260506012032 75 188 0.0 0.0 0.00 0.00 0.00 95 1006.1
20260506011530 76 188 0.0 0.0 0.00 0.00 0.00 95 1005.9
20260506011025 76 203 0.0 0.0 0.00 0.00 0.00 95 1005.5
20260506010525 76 186 0.0 0.0 0.00 0.00 0.00 94 1005.5
20260506010021 76 188 0.0 0.0 0.00 0.00 0.00 94 1005.1
20260506005518 76 186 0.0 0.0 0.00 0.00 0.00 93 1005.2
20260506005014 76 186 0.0 0.0 0.00 0.00 0.00 93 1005.4
20260506004512 77 185 0.0 0.0 0.00 0.00 0.00 93 1005.3
20260506004008 77 186 0.0 0.0 0.00 0.00 0.00 92 1005.2
20260506003504 77 177 0.0 0.0 0.00 0.00 0.00 92 1004.9
20260506003000 78 191 0.0 0.0 0.00 0.00 0.00 91 1005.2
20260506002457 78 151 0.0 0.9 0.00 0.00 0.00 90 1005.0
20260506001952 79 183 0.0 0.0 0.00 0.00 0.00 88 1005.1
20260506001449 80 182 0.0 0.0 0.00 0.00 0.00 87 1005.2
20260506000946 82 199 0.0 0.0 0.00 0.00 0.00 83 1005.0
20260506000445 82 177 0.0 0.0 0.00 0.00 0.00 78 1004.8
20260505235941 83 196 0.0 0.0 0.00 0.00 0.00 75 1004.6
20260505235439 83 240 0.0 0.9 0.00 0.00 0.00 75 1004.3
20260505234935 83 210 0.0 0.0 0.00 0.00 0.00 74 1004.1
20260505234433 84 181 0.0 0.0 0.00 0.00 0.00 73 1004.2
20260505233929 84 184 0.0 0.0 0.00 0.00 0.00 73 1004.1
20260505233427 84 196 0.0 0.0 0.00 0.00 0.00 74 1004.2
20260505232925 84 189 0.0 0.0 0.00 0.00 0.00 73 1004.2
20260505232422 85 208 0.0 0.0 0.00 0.00 0.00 72 1004.1
20260505231919 85 193 0.0 0.0 0.00 0.00 0.00 71 1004.0
20260505231416 85 171 0.0 0.9 0.00 0.00 0.00 71 1004.3
20260505230914 86 175 0.0 0.0 0.00 0.00 0.00 70 1004.3
20260505230412 86 195 0.9 0.9 0.00 0.00 0.00 69 1004.0
20260505225908 86 190 0.0 0.9 0.00 0.00 0.00 68 1004.0
20260505225406 87 190 0.0 0.0 0.00 0.00 0.00 69 1003.7
20260505224906 87 201 0.0 0.0 0.00 0.00 0.00 68 1003.8
20260505224404 87 183 0.0 0.0 0.00 0.00 0.00 69 1003.8
20260505223900 86 201 0.0 0.0 0.00 0.00 0.00 69 1003.9
20260505223357 87 175 0.0 0.0 0.00 0.00 0.00 68 1003.8
20260505222853 87 199 0.0 0.0 0.00 0.00 0.00 68 1003.6
20260505222350 87 196 0.9 1.7 0.00 0.00 0.00 68 1003.7
20260505221847 87 192 0.0 0.0 0.00 0.00 0.00 68 1003.7
20260505221343 87 202 0.0 0.0 0.00 0.00 0.00 66 1003.8
20260505220840 87 189 1.7 1.7 0.00 0.00 0.00 63 1003.7
20260505220337 87 178 0.0 0.9 0.00 0.00 0.00 65 1003.7
20260505215835 87 190 0.0 0.0 0.00 0.00 0.00 67 1003.5
20260505215333 87 185 0.9 0.9 0.00 0.00 0.00 65 1003.8
20260505214831 87 202 0.0 0.0 0.00 0.00 0.00 67 1003.8
20260505214328 87 216 0.0 0.0 0.00 0.00 0.00 66 1003.8
20260505213825 87 197 0.0 0.0 0.00 0.00 0.00 66 1003.8
20260505213323 87 195 0.9 0.9 0.00 0.00 0.00 65 1004.0
20260505212819 87 200 0.0 0.0 0.00 0.00 0.00 65 1003.9
20260505212316 87 208 0.0 0.0 0.00 0.00 0.00 67 1004.1
20260505211812 87 173 0.0 0.9 0.00 0.00 0.00 65 1004.1
20260505211310 88 195 0.0 0.9 0.00 0.00 0.00 64 1004.1
20260505210806 88 188 0.0 0.9 0.00 0.00 0.00 63 1004.4
20260505210303 87 213 0.0 0.0 0.00 0.00 0.00 65 1004.2
20260505205800 87 197 0.0 0.0 0.00 0.00 0.00 67 1004.3
20260505205259 87 177 0.0 0.9 0.00 0.00 0.00 67 1004.4
20260505204755 87 209 0.0 0.0 0.00 0.00 0.00 65 1004.4
20260505204253 87 188 0.0 0.0 0.00 0.00 0.00 64 1004.5
20260505203749 87 215 0.0 0.9 0.00 0.00 0.00 63 1004.7
20260505203246 87 158 0.9 1.7 0.00 0.00 0.00 63 1004.5
20260505202742 87 204 0.0 0.0 0.00 0.00 0.00 63 1004.7
20260505202238 87 158 0.9 0.9 0.00 0.00 0.00 64 1004.7
20260505201736 87 200 0.0 0.0 0.00 0.00 0.00 68 1004.8
20260505201233 86 174 0.9 0.9 0.00 0.00 0.00 65 1004.9
20260505200731 86 204 0.0 0.9 0.00 0.00 0.00 65 1005.0
20260505200228 86 182 0.0 0.9 0.00 0.00 0.00 67 1005.0
20260505195723 86 191 0.9 1.7 0.00 0.00 0.00 66 1004.9
20260505195221 86 171 0.9 0.9 0.00 0.00 0.00 68 1005.0
20260505194718 85 181 0.9 1.7 0.00 0.00 0.00 67 1004.9
20260505194214 85 166 0.0 0.9 0.00 0.00 0.00 68 1004.9
20260505193710 85 186 0.0 0.0 0.00 0.00 0.00 69 1005.2
20260505193208 85 185 0.9 0.9 0.00 0.00 0.00 68 1004.9
20260505192707 84 204 0.9 0.9 0.00 0.00 0.00 69 1005.2
20260505192204 84 273 0.0 0.9 0.00 0.00 0.00 69 1005.1
20260505191702 84 203 0.9 0.9 0.00 0.00 0.00 69 1005.0
20260505191200 84 184 0.0 0.9 0.00 0.00 0.00 72 1005.1
20260505190656 84 179 1.7 1.7 0.00 0.00 0.00 69 1005.2
20260505190155 84 185 0.9 1.7 0.00 0.00 0.00 71 1005.1
20260505185652 83 228 0.9 1.7 0.00 0.00 0.00 72 1005.3
20260505185149 83 203 0.0 0.0 0.00 0.00 0.00 72 1005.3
20260505184645 83 190 0.0 0.9 0.00 0.00 0.00 72 1005.3
20260505184143 82 170 0.9 0.9 0.00 0.00 0.00 73 1005.2
20260505183639 82 219 0.9 0.9 0.00 0.00 0.00 73 1005.5
20260505183137 82 183 0.9 0.9 0.00 0.00 0.00 73 1005.2
20260505182633 82 228 0.0 0.0 0.00 0.00 0.00 73 1005.4
20260505182130 82 212 0.0 0.0 0.00 0.00 0.00 73 1005.6
20260505181626 82 197 0.0 0.9 0.00 0.00 0.00 74 1005.5
20260505181124 82 174 1.7 2.6 0.00 0.00 0.00 73 1005.5
20260505180620 81 216 0.0 0.9 0.00 0.00 0.00 73 1005.6
20260505180117 81 172 0.9 1.7 0.00 0.00 0.00 74 1005.5
20260505175613 82 225 0.9 1.7 0.00 0.00 0.00 73 1005.6
20260505175109 82 203 0.0 0.0 0.00 0.00 0.00 72 1005.4
20260505174606 82 204 0.9 0.9 0.00 0.00 0.00 71 1005.6
20260505174102 82 199 0.9 1.7 0.00 0.00 0.00 72 1005.7
20260505173554 82 198 0.0 0.9 0.00 0.00 0.00 75 1005.4
20260505173051 81 173 0.9 1.7 0.00 0.00 0.00 73 1005.6
20260505172548 81 196 0.9 0.9 0.00 0.00 0.00 73 1005.6
20260505172045 81 176 0.0 0.0 0.00 0.00 0.00 73 1005.7
20260505171545 81 219 0.9 0.9 0.00 0.00 0.00 73 1005.6
20260505171042 81 193 0.0 0.0 0.00 0.00 0.00 74 1005.5
20260505170539 81 184 0.0 0.9 0.00 0.00 0.00 73 1005.6
20260505170035 81 169 1.7 1.7 0.00 0.00 0.00 73 1005.7
20260505165531 80 197 1.7 1.7 0.00 0.00 0.00 74 1005.8
20260505165026 79 199 0.0 0.0 0.00 0.00 0.00 75 1005.6
20260505164522 79 188 0.0 0.0 0.00 0.00 0.00 76 1005.7
20260505164021 79 184 0.9 0.9 0.00 0.00 0.00 75 1005.8
20260505163519 79 319 1.7 3.5 0.00 0.00 0.00 75 1005.7
20260505163015 79 182 1.7 2.6 0.00 0.00 0.00 75 1005.7
20260505162509 80 167 0.9 1.7 0.00 0.00 0.00 76 1005.3
20260505162006 79 353 0.9 1.7 0.00 0.00 0.00 76 1005.3
20260505161502 79 183 0.9 0.9 0.00 0.00 0.00 75 1005.4
20260505160959 79 190 0.9 1.7 0.00 0.00 0.00 76 1005.4
20260505160457 78 171 0.9 1.7 0.00 0.00 0.00 75 1005.5
20260505152934 78 213 0.9 0.9 0.00 0.00 0.00 79 1005.6
20260505152426 77 228 0.9 1.7 0.00 0.00 0.00 79 1005.6
20260505151925 77 218 0.9 1.7 0.00 0.00 0.00 80 1005.5
20260505151421 76 170 1.7 2.6 0.00 0.00 0.00 81 1005.6
20260505150919 76 202 0.9 0.9 0.00 0.00 0.00 82 1005.6
20260505150416 76 208 0.0 0.0 0.00 0.00 0.00 82 1005.7
20260505140340 73 208 0.9 0.9 0.00 0.00 0.00 85 1005.6
20260505130303 72 210 0.0 0.0 0.00 0.00 0.00 87 1005.3
20260505124754 71 191 0.0 0.0 0.00 0.00 0.00 87 1005.3
20260505124251 71 200 0.0 0.0 0.00 0.00 0.00 87 1005.2
20260505123746 71 226 0.0 0.0 0.00 0.00 0.00 87 1005.1
20260505123243 71 203 0.0 0.0 0.00 0.00 0.00 87 1005.0
20260505122739 71 198 0.0 0.0 0.00 0.00 0.00 87 1004.8
20260505122237 71 202 0.0 0.0 0.00 0.00 0.00 87 1004.8
20260505121733 71 199 0.0 0.0 0.00 0.00 0.00 87 1004.7
20260505121230 71 198 0.0 0.9 0.00 0.00 0.00 87 1004.8
20260505120726 71 197 0.0 0.0 0.00 0.00 0.00 87 1004.9
20260505120223 71 185 0.0 0.9 0.00 0.00 0.00 87 1004.7
20260505115721 71 203 0.0 0.0 0.00 0.00 0.00 87 1004.7
20260505115219 71 335 0.0 0.0 0.00 0.00 0.00 87 1004.4
20260505114716 71 190 0.0 0.0 0.00 0.00 0.00 87 1004.4
20260505114212 71 208 0.0 0.0 0.00 0.00 0.00 87 1004.4